This is the latest recevied weather packets stored in our database for station/object SP6PWT-13. If no packets are shown the sender has not sent any weather packets the latest 1 day(s).
| Time | Temp. | Humidity | Pressure | Rain* | Wind** | Luminosity | Snow |
|---|---|---|---|---|---|---|---|
| 1777995693 | 27.22° C | 32% | 988.9 hPa | 0 mm | 1.34 m/s, 99° | 168 W/m² | - |
| 1777995393 | 27.22° C | 31% | 988.8 hPa | 0 mm | 0.89 m/s, 265° | 145 W/m² | - |
| 1777995092 | 26.67° C | 32% | 988.9 hPa | 0 mm | 0 m/s | 197 W/m² | - |
| 1777994791 | 26.11° C | 32% | 988.9 hPa | 0 mm | 3.13 m/s, 273° | 221 W/m² | - |
| 1777994491 | 26.11° C | 32% | 988.9 hPa | 0 mm | 1.34 m/s, 263° | 235 W/m² | - |
| 1777994180 | 26.11° C | 32% | 989 hPa | 0 mm | 3.13 m/s, 4° | 249 W/m² | - |
| 1777993879 | 26.11° C | 33% | 988.9 hPa | 0 mm | 1.34 m/s, 29° | 282 W/m² | - |
| 1777993569 | 26.11° C | 33% | 989 hPa | 0 mm | 1.79 m/s, 4° | 320 W/m² | - |
| 1777993269 | 26.11° C | 33% | 988.8 hPa | 0 mm | 2.68 m/s, 32° | 331 W/m² | - |
| 1777992968 | 26.67° C | 32% | 989.1 hPa | 0 mm | 1.34 m/s, 353° | 336 W/m² | - |
| 1777992667 | 26.11° C | 33% | 989.1 hPa | 0 mm | 1.34 m/s, 20° | 345 W/m² | - |
| 1777992366 | 26.11° C | 33% | 989.1 hPa | 0 mm | 2.68 m/s, 352° | 372 W/m² | - |
| 1777992066 | 26.11° C | 33% | 989.4 hPa | 0 mm | 0.89 m/s, 273° | 398 W/m² | - |
| 1777991766 | 26.11° C | 33% | 989.3 hPa | 0 mm | 2.24 m/s, 299° | 419 W/m² | - |
| 1777991465 | 26.11° C | 33% | 989.1 hPa | 0 mm | 2.24 m/s, 314° | 373 W/m² | - |
| 1777991165 | 26.11° C | 33% | 989.2 hPa | 0 mm | 1.34 m/s, 2° | 293 W/m² | - |
| 1777990865 | 26.67° C | 32% | 989.4 hPa | 0 mm | 1.34 m/s, 9° | 232 W/m² | - |
| 1777990564 | 26.11° C | 33% | 989.4 hPa | 0 mm | 0.89 m/s, 256° | 229 W/m² | - |
| 1777990264 | 26.11° C | 33% | 989.4 hPa | 0 mm | 0.89 m/s, 285° | 184 W/m² | - |
| 1777989963 | 25.56° C | 33% | 989.3 hPa | 0 mm | 0 m/s | 177 W/m² | - |
| 1777989663 | 25.56° C | 33% | 989.5 hPa | 0 mm | 0.89 m/s, 69° | 171 W/m² | - |
| 1777989353 | 25.56° C | 33% | 989.3 hPa | 0 mm | 1.34 m/s, 31° | 192 W/m² | - |
| 1777989052 | 26.11° C | 33% | 989.6 hPa | 0 mm | 1.34 m/s, 62° | 219 W/m² | - |
| 1777988752 | 27.22° C | 31% | 989.6 hPa | 0 mm | 1.34 m/s, 35° | 365 W/m² | - |
| 1777988442 | 27.78° C | 30% | 989.4 hPa | 0 mm | 0.45 m/s, 58° | 343 W/m² | - |
* Rain latest hour (hover to see other rain measurements)
** Current wind speed in m/s (hover to see current wind gust speed)